Location: Glen Avon
(34.0117°N, 117.4848°W)
Time: 13:25:50
(UTC+00:00)

Cosmos 1758 - Pass Details

Date: 01 August 2021
Orbit: 539 x 561 km, 82.5° (Epoch: 18 September)

Event Time Altitude Azimuth Distance (km) Brightness Sun altitude
Exits shadow 12:13:04 12° 220° (SW) 1,679 5.2 -9.9°
Maximum altitude 12:16:16 31° 281° (W) 969 4.2 -9.3°
Drops below altitude 10° 12:19:50 10° 344° (NNW) 1,815 6.1 -8.7°
Sets 12:22:12 0° 355° (N) 2,716 7.2 -8.2°
